Location: Gairloch Mountain Observatory
(46.1383°N, 60.9640°W)
Time: 20:56:09
(UTC-04:00)

CENTAUR R/B - Visible Passes

Search period start: 19 December 2014 00:00
Search period end: 29 December 2014 00:00
Orbit: 891 x 1298 km, 63.5° (Epoch: 17 December)

Date Brightness Start Highest point End Pass type
(mag) Time Alt. Az. Time Alt. Az. Time Alt. Az.
19 Dec 4.1 04:46:04 10° S 04:51:32 34° ESE 04:57:29 10° NE visible
19 Dec 2.7 06:35:36 10° WSW 06:41:51 58° NW 06:48:47 10° NE visible
20 Dec 4.8 03:59:35 10° SSE 04:03:54 20° ESE 04:08:28 10° ENE visible
20 Dec 2.5 05:47:17 10° SW 05:53:34 85° NW 06:00:35 10° NE visible
21 Dec 5.3 03:15:27 10° ESE 03:16:25 10° E 03:17:25 10° E visible
21 Dec 2.9 05:00:14 15° SSW 05:05:30 62° ESE 05:12:17 10° NE visible
21 Dec 3.2 06:50:39 10° WSW 06:56:37 38° NW 07:03:11 10° NNE visible
22 Dec 3.7 04:15:19 29° SSE 04:17:38 38° ESE 04:23:48 10° NE visible
22 Dec 2.8 06:02:37 14° WSW 06:08:06 53° NW 06:14:59 10° NE visible
23 Dec 4.4 03:29:55 23° ESE 03:29:57 23° ESE 03:34:56 10° ENE visible
23 Dec 2.5 05:17:11 39° SW 05:19:46 77° NW 05:26:48 10° NE visible
23 Dec 3.7 07:06:07 10° W 07:11:39 27° NNW 07:17:39 10° NNE visible
24 Dec 5.2 02:44:13 11° E 02:44:13 11° E 02:44:57 10° E visible
24 Dec 2.7 04:31:27 69° SE 04:31:39 70° ESE 04:38:32 10° NE visible
24 Dec 3.3 06:18:42 18° W 06:22:55 35° NNW 06:29:23 10° NNE visible
25 Dec 3.9 03:45:32 36° E 03:45:32 36° E 03:50:06 10° NE visible
25 Dec 2.9 05:32:46 41° WNW 05:34:21 48° NW 05:41:11 10° NNE visible
26 Dec 4.9 02:59:27 17° ENE 02:59:27 17° ENE 03:01:21 10° ENE visible
26 Dec 2.6 04:46:40 65° N 04:46:40 65° N 04:53:00 10° NE visible
26 Dec 3.8 06:33:54 15° WNW 06:38:00 26° NNW 06:43:54 10° NNE visible
27 Dec 3.6 04:00:28 40° NE 04:00:28 40° NE 04:04:45 10° NE visible
27 Dec 3.4 05:47:41 30° NW 05:49:14 33° NNW 05:55:35 10° NNE visible
28 Dec 4.7 03:14:11 21° NE 03:14:11 21° NE 03:16:23 10° NE visible
28 Dec 3.1 05:01:23 43° NNW 05:01:23 43° NNW 05:07:23 10° NNE visible
28 Dec 4.1 06:48:36 11° WNW 06:53:18 21° NNW 06:58:41 10° NE visible
